DELTA 1 DEB, 42585

Orbit data source: Space-Track

DELTA 1 DEB, 42585 is space debris in SSO originally from a launch on Tue, 06 Nov 1973 UTC launched from the Air Force Western Test Range (AFWTR). Debris objects in space refer to the collection of defunct objects orbiting the Earth. Examples of debris include non-operational satellites, rocket bodies, and fragments generated from explosions, collisions, or faulty payload assembly.

Loading next visibility...
Identifier
42585, 1973-086HZ
Orbit
SSO
Country
Flag of USUS
Related business
Manufacturer
Unknown
Mission
Spacecraft
Bus & Motor
Unknown
Mass
Unknown
Launch date (UTC)
1973-11-06 (53 years ago)
Launch vehicle
Unknown
Launch site
Air Force Western Test Range (AFWTR)
Object type
Payload
Rocket body
Debris
Shape & HBR
Unknown shape, 0.1 m
Radar Cross Section
Small (<0.1 m²)

Expand to show TLE details & history
Last TLE update: 2 days ago

TLE from 2 days ago
0 DELTA 1 DEB
1 42585U 73086HZ  26262.58662301 -.00000019  00000-0  11505-3 0  9993
2 42585 101.9623 204.3127 0243925 326.5039 209.6391 12.87044711  5998
Epoch: 2026-09-19T14:04Z
TLE epoch observation values (Epoch: 2026-09-19T14:04:44.228Z)
Latitude
5.01315°
Longitude
175.69511°
Altitude
1,479.557 km
Speed
7.048 km/s
True Right ascension
01h 41m 29s
True Declination
4° 59' 10"
Sunlit
Object was in full shadow at epoch
Visualization orbit readout
Latitude
Unknown
Longitude
Unknown
Altitude
Unknown
Speed
Unknown
Apparent Right ascension
Unknown
Apparent Declination
Unknown
Sunlit
N/A
Visualization observer readout
Local Sidereal Time
13:49:09
Azimuth
Unknown
Elevation
Unknown
Doppler factor
Unknown
Orbital elements
Apogee altitude
1,498.336 km
Perigee altitude
1,123.232 km
Semi-major axis
7,688.921 km
Eccentricity
0.02439
Inclination
101.9623°
RAAN
204.3127°
Arg. of periapsis
326.5039°
True anomaly
208.29263°
Mean anomaly
209.6391°
Eccentric anomaly
208.96234°
Mean motion
3.21918 °/min
Orbital period
111.83 mins
BSTAR
0.00011505
Loading maneuver chart data...
Computing Atmospheric mass density...
Loading historical data...
Loading historical data...
Loading historical data...
Loading historical data...
Loading historical data...
Loading historical data...
Loading historical data...

Documentation

Showing up to 5 results
|